Regional Weather Roundup
Issued by NWS Boston, MA

Current Version | Previous Version | Text Only | Print | Product List | Glossary Off
Versions: 1 2 3 4 5 6 7 8 9 10 11 12 13 14 15 16 17 18 19 20 21 22 23 24 25 26 27 28 29 30 31 32 33 34 35 36 37 38 39 40 41 42 43 44 45 46 47 48 49 50
000 ASUS41 KBOX 201310 RWRBOX REGIONAL WEATHER ROUNDUP NATIONAL WEATHER SERVICE TAUNTON MA 900 AM EDT THU JUL 20 2017 NOTE: "FAIR" INDICATES FEW OR NO CLOUDS BELOW 12,000 FEET WITH NO SIGNIFICANT WEATHER AND/OR OBSTRUCTIONS TO VISIBILITY. MAZALL-201400- EASTERN MASSACHUSETTS CITY SKY/WX TMP DP RH WIND PRES REMARKS BOSTON MOSUNNY 83 65 54 W6 29.95F BEVERLY MOSUNNY 81 68 64 W6 29.95S LAWRENCE MOSUNNY 83 67 58 SW6 29.96F BEDFORD MOSUNNY 81 67 62 W5 29.94F BLUE HILL N/A 80 66 62 CALM 29.97F NORWOOD MOSUNNY 81 68 64 SW3 29.95F MARSHFIELD MOSUNNY 82 68 61 CALM 29.94F PLYMOUTH SUNNY 80 67 64 W3 29.96F TAUNTON MOSUNNY 82 68 62 CALM 29.95F NEW BEDFORD MOSUNNY 83 68 60 NW3 29.95F $$ MAZALL-201400- CAPE COD AND THE ISLANDS CITY SKY/WX TMP DP RH WIND PRES REMARKS FALMOUTH MOSUNNY 81 72 74 VRB3 29.97F HYANNIS MOSUNNY 83 70 64 NW5 29.94F CHATHAM MOSUNNY 83 70 64 VRB5 29.96F PROVINCETOWN SUNNY 79 67 66 W6 29.95F NANTUCKET SUNNY 78 74 87 W5 29.96F MARTHAS VNYRD SUNNY 82 69 64 NW6 29.97S $$ MAZALL-201400- CENTRAL AND WESTERN MASSACHUSETTS CITY SKY/WX TMP DP RH WIND PRES REMARKS WORCESTER SUNNY 77 64 64 W9 30.00F FITCHBURG MOSUNNY 82 67 60 CALM 29.97F ORANGE SUNNY 76 67 73 CALM 29.98F SPRINGFIELD PTSUNNY 79 67 67 S5 29.96F WESTFIELD MOSUNNY 77 67 71 S3 29.97F NORTH ADAMS CLOUDY 74 65 73 CALM 29.99S PITTSFIELD MOSUNNY 76 65 68 VRB3 30.01S $$ RIZALL-201400- RHODE ISLAND CITY SKY/WX TMP DP RH WIND PRES REMARKS PROVIDENCE PTSUNNY 83 68 60 W6 29.97F NEWPORT SUNNY 81 69 67 NW6 29.97S BLOCK ISLAND CLOUDY 81 67 62 W5 29.99S WESTERLY SUNNY 82 71 69 CALM 29.98F $$ CTZALL-201400- CONNECTICUT CITY SKY/WX TMP DP RH WIND PRES REMARKS BRADLEY INTL PTSUNNY 81 67 62 S5 29.97F HARTFORD MOSUNNY 80 69 69 S6 29.97F BRIDGEPORT MOSUNNY 82 67 60 S5 29.98S DANBURY MOSUNNY 79 68 69 CALM 30.01F GROTON SUNNY 77 69 76 S5 29.97S NEW HAVEN MOSUNNY 81 68 64 W3 29.98S CHESTER FAIR 82 64 54 CALM 30.00S MERIDEN MOSUNNY 78 68 71 CALM 29.98F WILLIMANTIC MOSUNNY 79 69 71 CALM 29.99S OXFORD PTSUNNY 79 64 61 CALM 30.02F $$ MEZ002-015-021-024-NHZ003-005-008-011-012-014-VTZ005-008-201400- NORTHERN NEW ENGLAND CITY SKY/WX TMP DP RH WIND PRES REMARKS PORTLAND ME MOSUNNY 78 63 59 N5 29.92F BANGOR ME MOSUNNY 77 67 71 NW5 29.91F CONCORD NH SUNNY 79 68 69 CALM 29.95F MANCHESTER NH MOSUNNY 79 65 62 S5 29.94S NASHUA NH SUNNY 79 68 69 CALM 29.96S PORTSMOUTH NH MOSUNNY 79 66 64 SW5 29.93F JAFFREY NH SUNNY 78 67 68 CALM 30.00S KEENE NH N/A N/A N/A N/A MISG N/A BURLINGTON VT PTSUNNY 76 68 76 SW8 29.95R MT. WASHINGTON FOG 54 54 100 W24 N/A VSB 0 $$ NYZ052-076-201400- EASTERN NEW YORK CITY SKY/WX TMP DP RH WIND PRES REMARKS ALBANY PTSUNNY 76 66 71 SE5 29.97S NEW YORK CITY PTSUNNY 83 71 67 NE5 29.97S $$ ANZALL-201400- MARINE OBSERVATIONS STATION/POSITION TIME TEMP WIND PRES VSBY WAVE AIR SEA DIR/SP/G HT/PER (UTC) (F) (DEG/KT/KT) (MB) (MI) (FT/S) BOSTON BUOY 1250 72 70 210/ 6/ 6 1013.7F 1/14 BUZZARDS BAY 1200 74 270/ 5/ 5 1015.1R NANTUCKET SOUND 1250 72 1014.2F 1/14 MASS BAY-STELLWA 1204 69 65 220/ 6/ 8 1013.3R 1/ 8 ISLE OF SHOALS 1200 73 290/ 8/ 8 1013.7R S OF BLOCK IS 1255 73 N/A 3/ 5 $$ ......................KEY......................... SKY/WX - SKY CONDITION/PRESENT WEATHER TMP - TEMPERATURE IN FAHRENHEIT DWPT - DEWPOINT IN FAHRENHEIT RH - RELATIVE HUMIDITY IN PERCENT WIND - DIRECTION AND SPEED IN MPH PRES - MEAN SEA LEVEL PRESSURE IN INCHES OF HG WCI - WIND CHILL INDEX VSB - VISIBILITY IN MILES HX - HEAT INDEX TC - TEMPERATURE IN CELSIUS VRB - VARIABLE WIND DIRECTION N/A - NOT AVAILABLE

USA.gov is the U.S. government's official web portal to all federal, state and local government web resources and services.